EW9060 Weather Reports


time (UTC)temp
C
wind
direction
speed
KPH
gust
KPH
rain 1hr
cm
rain 24hr
cm
rain mn
cm
humidity
%
barometer
mb
20260905230016 29 258 1.6 14.5 0.00 0.00 0.00 30 1013.5
20260905224522 30 171 4.8 11.3 0.00 0.00 0.00 29 1013.7
20260905223007 28 130 1.6 9.7 0.00 0.00 0.00 30 1013.8
20260905221505 28 272 1.6 12.9 0.00 0.00 0.00 33 1013.8
20260905220005 28 288 0.0 6.4 0.00 0.00 0.00 33 1014.1
20260905214501 28 344 0.0 8.0 0.00 0.00 0.00 34 1014.2
20260905213058 28 61 1.6 9.7 0.00 0.00 0.00 32 1014.4
20260905211554 28 134 4.8 14.5 0.00 0.00 0.00 31 1014.6
20260905210052 27 226 0.0 8.0 0.00 0.00 0.00 35 1014.7
20260905204559 27 149 3.2 11.3 0.00 0.00 0.00 33 1014.8
20260905203055 26 235 1.6 12.9 0.00 0.00 0.00 33 1015.0
20260905201546 26 102 3.2 12.9 0.00 0.00 0.00 39 1014.9
20260905200052 26 154 3.2 11.3 0.00 0.00 0.00 41 1015.0
20260905194547 25 360 1.6 6.4 0.00 0.00 0.00 44 1015.2
20260905193037 25 79 1.6 8.0 0.00 0.00 0.00 45 1015.3
20260905191534 24 57 3.2 8.0 0.00 0.00 0.00 46 1015.5
20260905190034 23 105 3.2 8.0 0.00 0.00 0.00 50 1015.5
20260905184533 23 125 3.2 9.7 0.00 0.00 0.00 51 1015.6
20260905183026 22 169 3.2 8.0 0.00 0.00 0.00 54 1015.7
20260905181531 22 96 0.0 6.4 0.00 0.00 0.00 57 1015.7
20260905180019 21 65 1.6 6.4 0.00 0.00 0.00 58 1015.7
20260905174518 21 360 0.0 9.7 0.00 0.00 0.00 59 1015.7
20260905173015 20 67 4.8 9.7 0.00 0.00 0.00 61 1015.5
20260905171522 20 46 0.0 4.8 0.00 0.00 0.00 65 1015.5
20260905170006 19 220 0.0 4.8 0.00 0.00 0.00 66 1015.4
20260905164502 18 115 1.6 8.0 0.00 0.00 0.00 68 1015.6
20260905163100 18 53 3.2 6.4 0.00 0.00 0.00 70 1015.4
20260905161555 17 75 1.6 4.8 0.00 0.00 0.00 72 1015.5
20260905160054 17 206 0.0 6.4 0.00 0.00 0.00 75 1015.5
20260905154555 16 73 0.0 4.8 0.00 0.00 0.00 77 1015.5
20260905153047 15 171 0.0 8.0 0.00 0.00 0.00 79 1015.6
20260905151550 15 161 1.6 8.0 0.00 0.00 0.00 80 1015.4
20260905150052 14 120 0.0 6.4 0.00 0.00 0.00 81 1015.5
20260905144547 14 11 0.0 3.2 0.00 0.00 0.00 82 1015.5
20260905143049 13 13 0.0 6.4 0.00 0.00 0.00 84 1015.4
20260905141539 12 111 0.0 3.2 0.00 0.00 0.00 85 1015.2
20260905140038 12 142 0.0 1.6 0.00 0.00 0.00 86 1015.1
20260905134536 12 120 0.0 4.8 0.00 0.00 0.00 86 1014.9
20260905133035 12 88 0.0 4.8 0.00 0.00 0.00 86 1014.9
20260905131546 12 113 0.0 3.2 0.00 0.00 0.00 86 1014.9
20260905130033 12 101 0.0 0.0 0.00 0.00 0.00 85 1014.9
20260905124536 12 109 0.0 3.2 0.00 0.00 0.00 84 1014.8
20260905123029 13 92 0.0 3.2 0.00 0.00 0.00 83 1014.8
20260905121529 13 111 0.0 4.8 0.00 0.00 0.00 83 1014.8
20260905120026 13 141 0.0 0.0 0.00 0.00 0.00 82 1014.8
20260905114537 13 136 0.0 4.8 0.00 0.00 0.00 82 1014.8
20260905113033 13 107 1.6 4.8 0.00 0.00 0.00 81 1014.8
20260905111524 13 118 3.2 9.7 0.00 0.00 0.00 80 1014.8
20260905110021 14 103 1.6 9.7 0.00 0.00 0.00 80 1014.9
20260905104522 14 121 0.0 6.4 0.00 0.00 0.00 79 1014.8
20260905103024 14 119 0.0 6.4 0.00 0.00 0.00 78 1014.7
20260905101527 14 128 1.6 4.8 0.00 0.00 0.00 77 1014.9
20260905100022 14 127 1.6 4.8 0.00 0.00 0.00 77 1014.9
20260905094515 15 130 1.6 4.8 0.00 0.00 0.00 76 1015.0
20260905093016 15 164 0.0 6.4 0.00 0.00 0.00 75 1015.1
20260905091513 15 161 1.6 6.4 0.00 0.00 0.00 74 1015.0
20260905090015 15 139 0.0 6.4 0.00 0.00 0.00 74 1015.1
20260905084509 15 121 3.2 8.0 0.00 0.00 0.00 73 1015.1
20260905083008 15 124 1.6 6.4 0.00 0.00 0.00 73 1015.2
20260905081508 15 133 1.6 8.0 0.00 0.00 0.00 73 1015.2
20260905080007 16 127 0.0 8.0 0.00 0.00 0.00 73 1015.1
20260905074504 16 182 0.0 6.4 0.00 0.00 0.00 73 1015.0
20260905073003 16 159 1.6 8.0 0.00 0.00 0.00 73 1014.8
20260905071503 16 161 1.6 8.0 0.00 0.00 0.00 71 1014.8
20260905070100 16 132 0.0 6.4 0.00 0.00 0.00 70 1014.7
20260905064600 16 150 3.2 9.7 0.00 0.05 0.00 69 1014.6
20260905063102 17 188 1.6 6.4 0.00 0.05 0.00 68 1014.5
20260905061611 17 180 0.0 6.4 0.00 0.05 0.00 66 1014.4
20260905060055 17 157 1.6 8.0 0.00 0.05 0.00 65 1014.4
20260905054555 17 154 1.6 8.0 0.00 0.05 0.00 63 1014.4
20260905053059 18 172 0.0 4.8 0.00 0.05 0.00 61 1014.4
20260905051554 18 182 0.0 4.8 0.00 0.05 0.00 60 1014.4
20260905050053 19 218 1.6 9.7 0.00 0.05 0.00 59 1014.5
20260905044558 19 215 0.0 6.4 0.00 0.05 0.00 58 1014.5
20260905043052 20 188 0.0 8.0 0.00 0.05 0.00 56 1014.4
20260905041554 20 248 1.6 6.4 0.00 0.05 0.00 56 1014.3
20260905040051 20 223 3.2 8.0 0.00 0.05 0.00 55 1014.2
20260905034553 21 142 3.2 9.7 0.00 0.05 0.00 54 1014.0
20260905033050 21 205 3.2 11.3 0.00 0.05 0.00 52 1013.8
20260905031549 21 188 6.4 16.1 0.00 0.05 0.00 50 1013.6
20260905030101 22 231 3.2 12.9 0.00 0.05 0.00 49 1013.6
20260905024548 23 238 3.2 8.0 0.00 0.05 0.00 43 1013.4
20260905023047 23 209 1.6 8.0 0.00 0.05 0.00 39 1013.3
20260905021547 24 207 1.6 6.4 0.00 0.05 0.00 37 1013.3
20260905020059 25 195 0.0 9.7 0.00 0.05 0.00 34 1013.3
20260905014548 25 232 1.6 4.8 0.00 0.05 0.00 35 1013.4
20260905013045 26 153 1.6 8.0 0.00 0.05 0.00 35 1013.4
20260905011543 26 234 3.2 11.3 0.00 0.05 0.00 36 1013.2
20260905010045 26 216 3.2 12.9 0.00 0.05 0.00 36 1013.2
20260905004557 26 153 3.2 11.3 0.00 0.05 0.00 36 1013.1
20260905003041 27 216 0.0 8.0 0.00 0.05 0.00 35 1013.2
20260905001540 26 132 4.8 11.3 0.00 0.05 0.00 36 1013.2
20260905000039 27 203 3.2 12.9 0.00 0.05 0.00 37 1013.3
20260904234538 26 284 0.0 9.7 0.00 0.05 0.00 37 1013.4
20260904233049 26 311 4.8 8.0 0.00 0.05 0.00 38 1013.4
20260904231537 27 205 3.2 9.7 0.00 0.05 0.00 39 1013.6